Flag Weather past 2 weeks in Langenthal, Bern, Switzerland

Now
42 °F

Quite cool.


Feels Like: 38 °F
Forecast: 36 / 55 °F
Wind: 7 mph from Northeast

Location: Wynau

Current Time: Nov 28, 2014 at 3:50:19 PM

Latest Report: Nov 28, 2014 at 3:00 PM


Visibility: N/A

Pressure: 29.74 "Hg

Humidity: 89%

Dew point: 39 °F

Location of LangenthalLocation

Historic Weather in Langenthal — Graph

°F

Langenthal temperature yesterday

Maximum temperature yesterday: 47 °F (at 4:00 PM)
Minimum temperature yesterday: 45 °F (at 10:00 AM)
Average temperature yesterday: 46 °F

Past Weeks' High & Low Weather Summary

 TemperatureHumidityPressure
High53 °F (Nov 24, 3:00 PM)100% (Nov 13, 7:00 PM)30.32 "Hg (Nov 13, 7:00 PM)
Low33 °F (Nov 20, 2:00 AM)70% (Nov 19, 2:00 PM)29.59 "Hg (Nov 15, 6:00 PM)
Average44 °F95%29.98 "Hg
* Reported Nov 13 2:00 PM — Nov 28 2:00 PM, Langenthal, Weather by CustomWeather, © 2014

Note: Actual official high and low records may vary slightly from our data, if they occured in-between our weather recording intervals... More about our weather records

Advertising

Langenthal weather history for previous 24 hours

 ConditionsComfort  
Time TempWeatherWind HumidityBarometerVisibility
2:00 PM
Nov 28
42 °FQuite cool.7 mph90%29.74 "HgN/A
1:00 PM42 °FQuite cool.9 mph90%29.75 "HgN/A
12:00 PM41 °FQuite cool.7 mph92%29.77 "HgN/A
11:00 AM41 °FQuite cool.10 mph93%29.78 "HgN/A
10:00 AM42 °FQuite cool.8 mph94%29.79 "HgN/A
9:00 AM42 °FQuite cool.8 mph94%29.78 "HgN/A
8:00 AM42 °FQuite cool.5 mph95%29.79 "HgN/A
7:00 AM43 °FQuite cool.5 mph94%29.77 "HgN/A
6:00 AM43 °FQuite cool.6 mph92%29.77 "HgN/A
5:00 AM44 °FQuite cool.10 mph93%29.77 "HgN/A
4:00 AM43 °FQuite cool.6 mph96%29.79 "HgN/A
3:00 AM44 °FQuite cool.7 mph94%29.78 "HgN/A
2:00 AM44 °FQuite cool.6 mph96%29.79 "HgN/A
1:00 AM45 °FQuite cool.5 mph95%29.80 "HgN/A
12:00 AM45 °FCool.6 mph92%29.80 "HgN/A
11:00 PM
Nov 27
46 °FCool.6 mph94%29.80 "HgN/A
10:00 PM46 °FCool.3 mph94%29.80 "HgN/A
9:00 PM47 °FCool.6 mph93%29.80 "HgN/A
8:00 PM47 °FCool.5 mph92%29.78 "HgN/A
7:00 PM47 °FCool.2 mph93%29.78 "HgN/A
6:00 PM47 °FCool.1 mph97%29.78 "HgN/A
5:00 PM47 °FCool.1 mph91%29.78 "HgN/A
4:00 PM47 °FCool.1 mph91%29.77 "HgN/A
3:00 PM47 °FCool.1 mph97%29.78 "HgN/A
Weather by CustomWeather, © 2014

See weather overviewHow to use our weather pages